Regional Weather Roundup
Issued by NWS Sioux Falls, SD

Home | Current Version | Previous Version | Text Only | Print | Product List | Glossary On
Versions: 1 2 3 4 5 6 7 8 9 10 11 12 13 14 15 16 17 18 19 20 21 22 23 24 25 26 27 28 29 30 31 32 33 34 35 36 37 38 39 40 41 42 43 44 45 46 47 48 49 50
001
ASUS43 KFSD 301802
RWRFSD

WEATHER ROUNDUP FOR SE SOUTH DAKOTA/SW MINNESOTA/NW IOWA
NATIONAL WEATHER SERVICE SIOUX FALLS SD
100 PM CDT MON MAY 30 2016

NOTE: "FAIR" INDICATES FEW OR NO CLOUDS BELOW 12,000 FEET WITH NO
SIGNIFICANT WEATHER AND OR OBSTRUCTIONS TO VISIBILITY.


SDZ038>040-050-052>070-301900-
SOUTHEAST SOUTH DAKOTA

CITY           SKY/WX    TMP DP  RH WIND       PRES   REMARKS
BROOKINGS      MOSUNNY   75  56  51 S17G24    29.93F
CHAMBERLAIN    NOT AVBL
HURON          PTSUNNY   75  59  57 S12G24    29.88F
6HR MIN TEMP:  61; 6HR MAX TEMP:  76; 6HR PCP: TRACE;

MADISON        FAIR      73  59  60 S16G23    29.94F
MITCHELL       MOSUNNY   77  61  57 S17       29.89F
6HR MIN TEMP:  61; 6HR MAX TEMP:  77; 6HR PCP: TRACE;

SIOUX FALLS    PTSUNNY   77  59  53 S12       29.93F
6HR MIN TEMP:  62; 6HR MAX TEMP:  77;

WINNER         FAIR      75  57  53 S15G21    29.87F
YANKTON        CLOUDY    79  55  44 S12       29.90F
$$

MNZ071-072-080-081-089-090-097-098-301900-
SOUTHWEST MINNESOTA

CITY           SKY/WX    TMP DP  RH WIND       PRES   REMARKS
FAIRMONT       SUNNY     79  52  38 SE15      29.99S
JACKSON        SUNNY     79  50  36 S13G21    30.00S
LUVERNE        MOSUNNY   77  54  44 S14       29.96F
MARSHALL       SUNNY     80  56  43 S16       29.94F
6HR MIN TEMP:  63; 6HR MAX TEMP:  80;

MONTEVIDEO     SUNNY     82  54  36 S12G20    29.95F
PIPESTONE      MOSUNNY   75  55  50 S17       29.96F
REDWOOD FALLS  SUNNY     81  50  33 S15       29.95F
TRACY          SUNNY     80  54  40 S13G21    29.96F
WINDOM         SUNNY     81  52  36 CALM      29.98F
WORTHINGTON    SUNNY     77  57  50 S15G21    29.99F
$$

IAZ001>003-012>014-020>022-031-032-NEZ013-014-SDZ071-301900-
NORTHWEST IOWA

CITY           SKY/WX    TMP DP  RH WIND       PRES   REMARKS
ESTHERVILLE    SUNNY     77  58  51 S18G24    29.99S
SIOUX CITY     PTSUNNY   84  59  42 SE14      29.93F
6HR MIN TEMP:  64; 6HR MAX TEMP:  84;

SPENCER        MOSUNNY   80  56  43 SE15      29.98F
6HR MIN TEMP:  59; 6HR MAX TEMP:  80;

STORM LAKE       N/A     82  55  39 SW6G17    29.98F
$$

ABBREVIATIONS USED IN REMARKS
   TC - TEMPERATURE IN CELSIUS
  WCI - WIND CHILL INDEX
   HX - HEAT INDEX
  VSB - VISIBILITY





USA.gov is the U.S. government's official web portal to all federal, state and local government web resources and services.